Flag for Germany Weather past 2 weeks in Kassel, Hesse, Germany

Now
57 °F

Light rain. Scattered clouds.


Feels Like: 56 °F
Forecast: 43 / 53 °F
Wind: 7 mph from North

Location: Kassel / Calden

Current Time: Apr 26, 2015 at 5:49:37 PM

Latest Report: Apr 26, 2015 at 5:20 PM


Visibility: N/A

Pressure: 29.68 "Hg

Humidity: 82%

Dew point: 52 °F

Location of KasselLocation

Historic Weather in Kassel — Graph

°F

Kassel temperature yesterday

Maximum temperature yesterday: 61 °F (at 11:20 AM)
Minimum temperature yesterday: 46 °F (at 6:50 AM)
Average temperature yesterday: 56 °F

Past Weeks' High & Low Weather Summary

 TemperatureHumidityPressure
High73 °F (Apr 15, 3:50 PM)100% (Apr 23, 6:50 AM)30.42 "Hg (Apr 23, 6:50 AM)
Low30 °F (Apr 19, 6:20 AM)26% (Apr 21, 6:20 PM)29.71 "Hg (Apr 26, 2:20 PM)
Average52 °F60%30.14 "Hg
* Reported Apr 11 4:20 PM — Apr 26 4:20 PM, Kassel, Weather by CustomWeather, © 2015

Note: Actual official high and low records may vary slightly from our data, if they occured in-between our weather recording intervals... More about our weather records

Advertising

Kassel weather history for previous 24 hours

 ConditionsComfort  
Time TempWeatherWind HumidityBarometerVisibility
4:20 PM
Sun, Apr 26
63 °FScattered showers. Scattered clouds.5 mph68%29.71 "HgN/A
3:50 PM61 °FScattered showers. Partly sunny.5 mph77%29.71 "HgN/A
3:20 PM57 °FScattered showers. Partly sunny.3 mph82%29.71 "HgN/A
2:50 PM54 °FRain. Partly sunny.10 mph82%29.74 "HgN/A
2:20 PM61 °FBroken clouds.2 mph72%29.71 "HgN/A
1:50 PM59 °FBroken clouds.8 mph72%29.74 "HgN/A
1:20 PM59 °FPartly sunny.6 mph72%29.74 "HgN/A
12:50 PM57 °FScattered showers. Partly sunny.10 mph72%29.74 "Hg4 mi
12:20 PM59 °FPartly sunny.8 mph72%29.74 "HgN/A
11:50 AM59 °FPartly sunny.8 mph72%29.74 "HgN/A
11:20 AM57 °FPartly sunny.10 mph77%29.74 "HgN/A
10:50 AM57 °FPartly sunny.6 mph82%29.74 "HgN/A
10:20 AM57 °FBroken clouds.9 mph82%29.74 "HgN/A
9:50 AM55 °FBroken clouds.8 mph82%29.74 "Hg6 mi
9:20 AM55 °FBroken clouds.8 mph82%29.74 "Hg6 mi
8:50 AM54 °FPartly sunny.9 mph88%29.74 "Hg5 mi
8:20 AM52 °FPartly sunny.6 mph94%29.77 "Hg4 mi
7:50 AM52 °FBroken clouds.3 mph94%29.77 "Hg4 mi
7:20 AM50 °FMore clouds than sun.5 mph100%29.77 "Hg4 mi
6:50 AM50 °FFog.2 mph94%29.77 "Hg3 mi
6:20 AM50 °FFog.5 mph94%29.74 "Hg3 mi
9:50 PM
Sat, Apr 25
52 °FMostly cloudy.6 mph94%29.80 "HgN/A
9:20 PM54 °FBroken clouds.7 mph88%29.77 "HgN/A
8:50 PM54 °FBroken clouds.7 mph88%29.77 "HgN/A
8:20 PM54 °FPartly sunny.3 mph94%29.77 "HgN/A
7:50 PM55 °FBroken clouds.2 mph88%29.77 "HgN/A
7:20 PM54 °FPartly sunny.2 mph94%29.74 "Hg5 mi
6:50 PM54 °FBroken clouds.3 mph94%29.74 "Hg4 mi
6:20 PM54 °FLight rain. Fog.3 mph94%29.77 "Hg3 mi
5:50 PM54 °FRain. Partly sunny.5 mph94%29.77 "Hg4 mi
5:20 PM55 °FLight rain. Partly sunny.8 mph88%29.74 "HgN/A
Weather by CustomWeather, © 2015

See weather overviewHow to use our weather pages